EHI
0 0 0 0 0 0 0 0 0 0 0 0 0 0 0 0 0 0 0 0 0 0 0 0 0 0 0 0 0 0 0 0 0 0 0 0 0 0 0 0 0 0 0 0
0 0 0 0 0 0 0 0 0 0 0 0 0 0 0 0 0 0 0 0 0 0 0 0 0 0 0 0 0 0 0 0 0 0 0 0 0 0 0 0 0 0 0 0
0 0 0 0 0 0 0 0 0 0 0 0 0 0 0 0 0 0 0 0 0 0 0 0 0 0 0 0 0 0 0 0 0 0 0 0 0 0 0 0 0 0 0 0
0 0 0 0 0 0 0 0 0 0 0 0 0 0 0 0 0 0 0 0 0 0 0 0 0 0 0 0 0 0 0 0 0 0 0 0 0 0 0 0 0 0 0 0
0 0 0 0 0 0 0 0 0 0 0 0 0 0 0 0 0 0 0 0 0 0 0 0 0 0 0 0 0 0 0 0 0 0 0 0 0 0 0 0 0 0 0 0
0 0 0 0 0 0 0 0 0 0 0 0 0 0 0 0 0 0 0 0 0 0 0 0 0 0 0 0 0 0 0 0 0 0 0 0 0 0 0 0 0 0 0 0
0 0 0 0 0 0 0 0 0 0 0 0 0 0 0 0 0 0 0 0 0 0 0 0 0 0 0 0 0 0 0 0 0 0 0 0 0 0 0 0 0 0 0 0
0 0 0 0 0 0 0 0 0 0 0 0 0 0 0 0 0 0 0 0 0 0 0 0 0 0 0 0 0 0 0 0 0 0 0 0 0 0 0 0 0 0 0 0
0 0 0 0 0 0 0 0 0 0 0 0 0 0 0 0 0 0 0 0 0 0 0 0 0 0 0 0 0 0 0 0 0 0 0 0 0 0 0 0 0 0 0 0
0 0 0 0 0 0 0 0 0 0 0 0 0 0 0 0 0 0 0 0 0 0 0 0 0 0 0 0 0 0 0 0 0 0 0 0 0 0 0 0 0 0 0 0
0 0 0 0 0 0 0 0 0 0 0 0 0 0 0 0 0 0 0 0 0 0 0 0 0 0 0 0 0 0 0 0 0 0 0 0 0 0 0 0 0 0 0 0
0 0 0 0 0 0 0 0 0 0 0 0 0 0 0 0 0 0 0 0 0 0 0 0 0 0 0 0 0 0 0 0 0 0 0 0 0 0 0 0 0 0 0 0
0 0 0 0 0 0 0 0 0 0 0 0 0 0 0 0 0 0 0 0 0 0 0 0 0 0 0 0 0 0 0 0 0 0 0 0 0 0 0 0 0 0 0 0
0 0 0 0 0 0 0 0 0 0 0 0 0 0 0 0 0 0 0 0 0 0 0 0 0 0 0 0 0 0 0 0 0 0 0 0 0 0 0 0 0 0 0 0
0 0 0 0 0 0 0 0 0 0 0 0 0 0 0 0 0 0 0 0 0 0 0 0 0 0 0 0 0 0 0 0 0 0 0 0 0 0 0 0 0 0 0 0
0 0 0 0 0 0 0 0 0 0 0 0 0 0 0 0 0 0 0 0 0 0 0 0 0 0 0 0 0 0 0 0 0 0 0 0 0 0 0 0 0 0 0 0
0 0 0 0 0 0 0 0 0 0 0 0 0 0 0 0 0 0 0 0 0 0 0 0 0 0 0 0 0 0 0 0 0 0 0 0 0 0 0 0 0 0 0 0
0 0 0 0 0 0 0 0 0 0 0 0 0 0 0 0 0 0 0 0 0 0 0 0 0 0 0 0 0 0 0 0 0 0 0 0 0 0 0 0 0 0 0 0
0 0 0 0 0 0 0 0 0 0 0 0 0 0 0 0 0 0 0 0 0 0 0 0 0 0 0 0 0 0 0 0 0 0 0 0 0 0 0 0 0 0 0 0
0 0 0 0 0 0 0 0 0 0 0 0 0 0 0 0 0 0 0 0 0 0 0 0 0 0 0 0 0 0 0 0 0 0 0 0 0 0 0 0 0 0 0 0
0 0 0 0 0 0 0 0 0 0 0 0 0 0 0 0 0 0 0 0 0 0 0 0 0 0 0 0 0 0 0 0 0 0 0 0 0 0 0 0 0 0 0 0
0 0 0 0 0 0 0 0 0 0 0 0 0 0 0 0 0 0 0 0 0 0 0 0 0 0 0 0 0 0 0 0 0 0 0 0 0 0 0 0 0 0 0 0
0 0 0 0 0 0 0 0 0 0 0 0 0 0 0 0 0 0 0 0 0 0 0 0 0 0 0 0 0 0 0 0 0 0 0 0 0 0 0 0 0 0 0 0
0 0 0 0 0 0 0 0 0 0 0 0 0 0 0 0 0 0 0 0 0 0 0 0 0 0 0 0 0 0 0 0 0 0 0 0 0 0 0 0 0 0 0 0
0 0 0 0 0 0 0 0 0 0 0 0 0 0 0 0 0 0 0 0 0 0 0 0 0 0 0 0 0 0 0 0 0 0 0 0 0 0 0 0 0 0 0 0
0 0 0 0 0 0 0 0 0 0 0 0 0 0 0 0 0 0 0 0 0 0 0 0 0 0 0 0 0 0 0 0 0 0 0 0 0 0 0 0 0 0 0 0
0 0 0 0 0 0 0 0 0 0 0 0 0 0 0 0 0 0 0 0 0 0 0 0 0 0 0 0 0 0 0 0 0 0 0 0 0 0 0 0 0 0 0 0
Wind_Speed
12 13 12 13 14 15 17 17 16 16 15 11 6 4 3 3 4 5 7 8 10 9 9 9 9 9 9 10 11 12 13 13 13 12 12 12 12 12 11 11 11 11 10 10
12 10 11 13 15 17 19 20 19 17 17 10 7 4 1 1 3 4 6 7 8 9 9 10 10 10 10 11 11 12 13 12 11 11 11 11 11 11 11 11 10 10 10 10
8 8 10 11 12 13 14 15 17 17 13 7 8 7 5 3 2 3 4 6 7 9 9 9 10 10 11 12 12 12 12 12 12 12 11 11 11 11 11 11 10 10 10 10
7 7 10 4 3 8 11 11 11 10 8 9 10 10 5 3 3 3 3 4 6 7 7 8 8 9 10 11 12 12 12 12 12 12 12 11 11 11 11 10 10 9 9 9
5 7 10 6 2 5 8 6 5 7 8 9 10 9 8 5 5 5 5 5 5 6 7 8 9 10 12 12 12 12 13 13 12 13 13 12 12 11 10 10 9 8 8 9
7 7 7 3 6 7 7 5 4 4 6 8 7 9 9 7 8 8 7 4 3 4 6 9 10 12 13 13 13 13 13 13 13 13 13 13 12 11 9 9 9 8 8 7
11 9 8 5 7 2 4 2 3 4 6 7 7 10 10 10 10 9 7 5 3 4 6 8 11 12 13 13 13 12 12 12 12 12 12 12 12 10 10 10 10 9 9 7
8 10 8 4 3 1 4 4 5 6 7 8 10 12 12 11 10 9 7 5 4 4 5 7 11 13 13 13 12 13 13 13 12 12 11 10 12 11 11 11 11 10 9 8
7 7 5 4 5 6 5 6 7 8 9 10 11 12 12 12 11 9 8 6 4 4 5 6 9 12 13 13 14 15 14 14 13 13 11 11 12 12 11 9 8 8 7 7
10 11 11 11 9 7 7 9 10 10 10 10 11 12 12 11 10 8 7 5 4 5 6 7 8 10 11 13 15 16 16 14 13 13 12 11 9 8 8 8 8 8 8 7
14 14 12 11 10 10 11 12 12 12 12 11 11 12 12 11 9 7 5 4 5 6 7 8 9 10 12 15 16 17 15 13 13 12 12 11 9 7 7 6 6 8 7 7
13 11 11 13 13 14 15 15 14 14 14 12 11 12 11 10 8 6 5 4 5 6 7 9 10 12 13 15 17 18 15 13 11 10 10 10 11 10 12 10 13 11 10 9
19 18 16 18 18 17 16 15 14 13 13 13 12 10 9 8 6 4 4 5 6 7 8 10 11 12 13 15 16 17 16 14 11 11 11 11 10 11 11 12 14 13 13 12
17 17 18 18 18 16 15 15 14 13 12 11 10 9 7 5 4 4 4 5 6 7 9 11 12 13 13 14 15 16 15 13 12 11 11 11 10 10 10 11 10 8 10 13
17 17 17 17 16 15 14 13 13 12 10 9 7 6 5 4 3 3 4 5 7 8 10 11 12 13 13 15 16 16 14 11 11 10 10 10 10 10 9 10 9 9 8 9
16 16 16 16 16 16 14 13 12 11 9 8 6 5 4 3 2 3 4 7 9 10 11 12 12 13 14 15 16 13 12 15 13 11 11 10 10 9 9 9 9 8 7 7
15 16 15 15 15 15 14 12 11 10 9 7 5 3 3 4 4 5 5 5 6 8 10 12 13 13 13 15 15 12 13 14 16 12 10 10 9 9 9 8 8 7 6 6
16 17 16 15 14 13 12 11 10 9 8 6 4 4 5 6 6 6 7 8 10 10 9 11 13 14 14 14 13 12 12 11 10 10 10 9 9 9 8 8 8 8 7 7
13 14 15 15 14 13 11 10 8 7 6 5 5 5 5 5 6 7 9 10 12 11 9 12 16 15 14 15 14 12 12 12 11 10 10 13 11 9 8 8 8 7 6 6
11 12 13 13 12 11 10 8 7 6 5 6 6 6 6 6 7 9 9 8 6 7 11 14 14 13 14 14 15 12 13 13 12 11 10 9 9 9 8 8 7 7 6 5
10 10 10 10 10 9 8 8 7 7 6 7 8 8 8 8 8 9 10 9 8 10 13 16 11 11 11 13 15 12 12 12 11 11 10 10 9 9 8 8 7 6 5 4
9 9 9 9 8 7 6 6 6 7 7 7 8 9 10 10 9 8 7 7 10 13 11 10 10 14 16 16 11 11 12 12 10 9 9 9 9 8 8 7 6 5 4 4
9 8 8 7 6 5 4 5 6 7 8 9 9 10 10 9 8 9 9 7 10 14 11 10 16 22 21 12 11 11 12 11 10 9 9 8 8 7 7 7 6 5 4 4
8 7 5 4 4 5 5 5 6 6 7 8 7 8 9 9 7 6 8 14 16 15 11 16 22 22 18 10 10 10 10 10 9 9 9 8 7 7 6 6 5 4 4 4
5 4 3 4 5 5 7 8 8 8 9 8 9 8 6 6 8 10 11 13 18 16 13 17 21 19 12 10 10 10 9 9 9 9 8 8 7 6 6 5 4 4 3 3
3 2 2 3 4 5 6 7 7 7 8 9 8 8 8 8 11 11 11 13 16 16 12 11 11 12 9 10 10 10 9 10 10 8 8 7 7 6 5 5 5 3 3 2
1 1 2 4 4 5 6 7 8 8 8 10 10 9 9 10 10 11 13 11 11 11 10 9 9 9 9 9 10 9 8 8 8 7 7 6 5 5 5 5 3 3 2 2
Wind_Direction
277 279 269 258 250 242 232 232 232 234 240 245 249 258 247 213 193 179 176 179 178 172 168 167 166 167 167 168 168 168 170 173 176 175 175 174 173 173 173 174 175 174 173 174
277 273 268 260 249 242 237 235 241 247 244 251 261 268 256 192 175 182 180 176 176 174 170 170 168 166 165 167 167 166 168 170 167 166 166 166 167 166 166 166 166 165 168 168
275 286 283 250 235 230 226 229 232 237 246 266 262 262 261 249 207 195 188 183 182 183 181 176 173 170 168 165 163 165 165 163 163 162 161 161 159 159 160 160 160 162 163 165
277 278 242 245 250 233 226 231 241 252 267 268 261 257 251 256 251 256 231 201 196 189 183 175 169 167 159 157 161 161 160 159 159 158 157 155 157 158 156 155 157 158 159 161
255 263 268 274 286 248 234 236 286 274 278 282 284 262 246 266 293 283 266 232 211 198 180 168 167 162 155 156 159 160 160 160 160 158 155 155 156 155 152 150 150 150 153 156
246 257 255 317 326 296 235 230 341 319 304 300 284 244 245 285 288 288 290 270 223 189 170 166 164 159 158 159 161 165 163 159 156 156 154 154 152 148 144 142 140 137 138 146
240 253 266 323 330 307 198 273 325 305 307 299 264 262 290 298 285 277 276 269 234 196 180 171 163 163 163 163 167 161 153 149 150 151 149 145 141 139 137 134 132 131 129 131
226 237 248 2 0 295 303 319 310 303 304 298 291 290 292 292 289 283 278 263 230 203 183 166 167 167 166 166 156 148 146 144 144 143 138 138 135 134 136 135 133 133 130 125
234 252 293 291 277 273 284 298 308 307 304 303 299 298 298 293 287 277 262 247 223 195 173 170 174 173 166 155 148 146 143 141 138 135 134 137 137 137 137 138 137 138 137 134
261 263 277 286 282 279 290 295 301 301 301 302 298 298 297 291 282 272 256 233 205 179 172 173 173 171 158 149 148 144 141 138 137 135 132 130 129 134 138 142 142 141 142 140
260 270 281 277 279 287 295 298 302 304 299 294 296 295 293 288 277 261 251 227 203 189 177 170 164 158 151 150 147 141 138 136 135 131 130 124 116 112 124 125 140 145 146 145
257 267 272 280 287 291 294 294 298 300 299 297 292 292 291 284 275 254 231 209 197 185 168 160 155 152 151 152 148 141 139 139 136 133 129 125 119 100 75 93 97 99 110 120
260 270 272 278 283 285 286 288 292 291 289 293 294 292 287 281 271 243 219 200 185 171 161 154 150 150 152 152 148 144 142 140 137 136 134 132 130 126 115 93 90 98 108 112
258 264 269 272 276 280 281 284 288 286 286 287 291 290 282 271 253 220 204 185 165 155 151 148 147 148 150 148 143 139 136 134 135 136 135 134 132 129 129 129 123 106 102 110
256 255 260 269 274 277 279 282 283 283 288 289 290 282 267 246 227 205 177 155 147 145 145 145 144 145 146 144 139 137 134 134 132 129 128 128 127 125 125 125 124 124 121 114
261 259 258 261 266 273 277 276 273 276 280 281 284 277 259 225 185 162 158 156 153 151 149 146 144 144 144 140 135 130 126 127 127 128 127 127 127 126 127 128 128 131 132 132
260 257 256 258 262 266 269 268 263 267 267 267 265 244 201 168 152 143 141 140 136 135 140 142 140 139 139 137 132 128 127 127 125 124 126 127 128 128 129 130 130 129 128 134
255 257 257 257 260 264 267 265 257 254 253 248 227 200 187 173 160 145 135 127 118 114 121 131 133 134 133 131 127 126 127 129 128 126 125 125 124 125 126 126 128 128 127 130
260 258 260 259 257 257 261 260 250 243 235 211 195 189 181 166 153 143 137 134 132 128 129 130 130 129 128 126 124 123 125 125 122 121 122 125 122 122 124 126 127 129 131 135
267 263 262 260 257 252 251 246 237 229 212 191 176 168 163 155 147 141 135 126 124 127 132 131 128 125 124 125 122 124 125 125 125 125 125 126 125 124 124 125 128 131 134 136
276 269 264 259 255 250 243 231 218 208 195 182 173 165 154 144 142 139 131 120 112 122 127 126 124 124 124 125 120 122 123 124 125 127 128 127 126 126 127 129 131 133 135 136
280 270 262 255 248 246 235 211 198 185 173 166 157 148 142 139 135 121 107 118 128 128 125 123 122 124 127 124 119 121 122 123 124 125 126 127 129 131 131 133 134 135 136 137
280 270 259 247 235 226 204 187 178 168 161 158 156 153 147 141 139 133 124 123 128 126 122 122 127 126 123 116 117 120 122 123 124 124 124 126 128 130 133 135 135 137 140 142
280 271 258 234 196 179 171 162 150 143 138 137 140 142 139 132 120 107 114 126 127 123 118 124 126 124 118 114 116 118 120 120 120 121 122 123 125 127 130 133 136 138 142 150
279 263 230 191 176 167 152 140 131 128 127 126 126 123 121 120 123 123 122 125 125 119 117 123 122 118 113 112 115 117 119 120 122 124 124 126 127 129 131 134 138 141 147 156
277 251 214 182 161 149 145 143 141 139 135 129 122 118 114 112 115 117 118 120 119 116 115 117 118 114 110 113 115 115 116 119 118 118 123 124 126 128 130 133 138 144 152 161
288 166 140 133 133 137 140 140 138 138 137 133 126 124 122 120 119 119 118 117 116 113 111 111 112 112 113 113 113 113 113 114 115 116 119 120 124 127 132 137 140 147 159 174